Regional Weather Roundup
Issued by NWS

Home | Current Version | Previous Version | Text Only | Print | Product List | Glossary On
Versions: 1 2 3 4 5 6 7 8 9 10 11 12 13 14 15 16 17 18 19 20 21 22 23 24 25 26 27 28 29 30 31 32 33 34 35 36 37 38 39 40 41 42 43 44 45 46 47 48 49 50
000
ASUS43 KDTX 271210
RWRMI
MICHIGAN HOURLY REGIONAL WEATHER ROUNDUP
NATIONAL WEATHER SERVICE DETROIT/PONTIAC MI
800 AM EDT TUE SEP 27 2016

NOTE: "FAIR" INDICATES FEW OR NO CLOUDS BELOW 12,000 FEET WITH NO
SIGNIFICANT WEATHER AND/OR OBSTRUCTION TO VISIBILITY.

MIZ047>049-052>055-059>063-066>070-074>076-081>083-271300-
SOUTHEAST LOWER MICHIGAN

CITY           SKY/WX    TMP DP  RH WIND       PRES   REMARKS
ADRIAN         CLEAR     45  41  86 SW7       29.84F
6HR MIN TEMP:  44; 6HR MAX TEMP:  50;

ALMA           CLEAR     49  46  87 SW8       29.72F
ANN ARBOR      CLEAR     45  40  82 S5        29.81S
BAD AXE        PTCLDY    49  42  75 SW10      29.72S
6HR MIN TEMP:  47; 6HR MAX TEMP:  49;

CARO           MOCLDY    48  43  82 S7        29.73S
DETROIT CITY   CLEAR     52  40  63 SW12      29.81F
6HR MIN TEMP:  52; 6HR MAX TEMP:  56;

DETROIT        PTCLDY    51  41  68 S13       29.82F
6HR MIN TEMP:  49; 6HR MAX TEMP:  52;

FLINT          PTCLDY    51  41  68 SW9       29.77S
6HR MIN TEMP:  50; 6HR MAX TEMP:  52;

GROSSE ILE     CLEAR     53  39  59 SW9       29.81S
6HR MIN TEMP:  53; 6HR MAX TEMP:  57;

HILLSDALE      CLEAR     46  37  71 S7        29.82S
HOWELL         CLEAR     51  40  66 SW7       29.78S
6HR MIN TEMP:  50; 6HR MAX TEMP:  52;


CITY           SKY/WX    TMP DP  RH WIND       PRES   REMARKS
JACKSON        CLEAR     52  39  61 SW13      29.80S
6HR MIN TEMP:  50; 6HR MAX TEMP:  54;

LAMBERTVILLE   CLEAR     52  40  64 SW7       29.85S
6HR MIN TEMP:  52; 6HR MAX TEMP:  56;

LANSING        CLEAR     51  40  65 SW12      29.76F
6HR MIN TEMP:  50; 6HR MAX TEMP:  53;

LAPEER         MOCLDY    51  41  69 SW9       29.76S
MASON          CLEAR     49  40  71 CALM      29.78S
MONROE         CLEAR     51  41  67 SW9       29.83S
MT. CLEMENS    PTCLDY    53  40  62 SW10      29.77F
6HR MIN TEMP:  48; 6HR MAX TEMP:  54;

PONTIAC        PTCLDY    51  40  65 S7        29.78S
6HR MIN TEMP:  51; 6HR MAX TEMP:  53;

PORT HURON     PTCLDY    48  41  76 SW3       29.78S
TRI CITIES     PTCLDY    51  43  74 S10       29.72F
6HR MIN TEMP:  50; 6HR MAX TEMP:  52;

MIDLAND        FAIR      48  42  81 S5        29.70S
6HR MIN TEMP:  47; 6HR MAX TEMP:  49;

TROY           CLEAR     51  38  61 SW9       29.81F
SAGINAW HB     PTCLDY    50  43  76 S9        29.72F
$$
MIZ043>046-050>051-056>058-064>065-071>073-077>080-271300-
SOUTHWEST LOWER MICHIGAN

CITY           SKY/WX    TMP DP  RH WIND       PRES   REMARKS
BATTLE CREEK   CLEAR     50  41  71 SW10      29.78F
6HR MIN TEMP:  49; 6HR MAX TEMP:  52;

BENTON HARBOR  CLEAR     61  43  51 W23G31    29.80S
6HR MIN TEMP:  60; 6HR MAX TEMP:  65;

BIG RAPIDS     PTCLDY    50  45  81 S3        29.68F
6HR MIN TEMP:  49; 6HR MAX TEMP:  53;

COLDWATER      CLEAR     49  39  68 SW8       29.82S
6HR MIN TEMP:  48; 6HR MAX TEMP:  52;

FREMONT        FAIR      53  39  58 W6        29.70S
6HR MIN TEMP:  51; 6HR MAX TEMP:  55;

HOLLAND        CLEAR     60  45  57 W13G25    29.75S
6HR MIN TEMP:  60; 6HR MAX TEMP:  64;

GRAND RAPIDS   PTCLDY    50  43  77 S12       29.74S
6HR MIN TEMP:  48; 6HR MAX TEMP:  53;

IONIA          FAIR      50  41  72 S9        29.72F
6HR MIN TEMP:  50; 6HR MAX TEMP:  52;

KALAMAZOO      CLEAR     50  40  68 SW9       29.79F
6HR MIN TEMP:  50; 6HR MAX TEMP:  54;

LUDINGTON      CLOUDY    57  46  68 W8G21     29.66S
6HR MIN TEMP:  57; 6HR MAX TEMP:  61;

MARSHALL       CLEAR     49  40  70 SW7       29.79S
6HR MIN TEMP:  49; 6HR MAX TEMP:  54;

MOUNT PLEASANT CLEAR     50  43  76 S5        29.69F
6HR MIN TEMP:  50; 6HR MAX TEMP:  53;

MUSKEGON       PTCLDY    60  43  53 W14G26    29.71F
6HR MIN TEMP:  60; 6HR MAX TEMP:  64;

SOUTH HAVEN    CLEAR     62  46  56 W16G28    29.77F
$$
MIZ016>042-271300-
NORTHERN LOWER MICHIGAN

CITY           SKY/WX    TMP DP  RH WIND       PRES   REMARKS
ALPENA         CLOUDY    53  42  66 S9        29.62F
6HR MIN TEMP:  52; 6HR MAX TEMP:  53; 6HR PCP: TRACE;

BEAVER ISLAND  CLOUDY    55  49  80 W21G29    29.54S
6HR MIN TEMP:  53; 6HR MAX TEMP:  55;

BELLAIRE       CLOUDY    56  48  74 SW6       29.59F
6HR MIN TEMP:  51; 6HR MAX TEMP:  56;

CADILLAC       CLOUDY    50  43  78 SW8       29.64F
CHARLEVOIX     CLOUDY    57  47  67 W17G26    29.59S
6HR MIN TEMP:  54; 6HR MAX TEMP:  58;

FRANKFORT      CLOUDY    58  45  62 W13G25    29.62S
GAYLORD        CLOUDY    51  45  79 SW10      29.60S
6HR MIN TEMP:  49; 6HR MAX TEMP:  51; 6HR PCP:  0.01;

GRAYLING       CLOUDY    52  44  74 S6        29.63F
6HR MIN TEMP:  49; 6HR MAX TEMP:  53;

HARBOR SPRINGS CLOUDY    56  51  83 SW13G23   29.55S
HOUGHTON LAKE  CLOUDY    51  43  74 SW10G20   29.65F
6HR MIN TEMP:  50; 6HR MAX TEMP:  52;

MANISTEE       CLOUDY    57  46  66 W13G25    29.64S
OSCODA         MOCLDY    50  42  74 SW12      29.66S
6HR MIN TEMP:  48; 6HR MAX TEMP:  50;

PELLSTON       CLOUDY    53  49  86 SW6       29.56R
6HR MIN TEMP:  52; 6HR MAX TEMP:  54; 6HR PCP:  0.19;

ROGERS CITY    CLOUDY    53  45  75 S10G16    29.60S
TRAVERSE CITY  CLOUDY    57  45  64 SW8       29.60S
6HR MIN TEMP:  53; 6HR MAX TEMP:  57;

$$
MIZ007>008-015-271300-
EASTERN UPPER MICHIGAN

CITY           SKY/WX    TMP DP  RH WIND       PRES   REMARKS
KINROSS        CLOUDY    51  47  86 SW5       29.52S
6HR MIN TEMP:  50; 6HR MAX TEMP:  52; 6HR PCP: TRACE;

MACKINAC ISLAN LGT RAIN  54  52  93 W12G22    29.53S
NEWBERRY       CLOUDY    50  48  92 SW10      29.50S
6HR MIN TEMP:  49; 6HR MAX TEMP:  50; 6HR PCP:  0.01;

S. S. MARIE    CLOUDY    52  47  83 SW6       29.51S
6HR MIN TEMP:  51; 6HR MAX TEMP:  53; 6HR PCP:  0.03;

MUNISING         N/A     52  47  83 SW7       29.49S
6HR MIN TEMP:  51; 6HR MAX TEMP:  52; 6HR PCP:  0.01;

$$
MIZ004>006-011>014-085-271300-
CENTRAL UPPER MICHIGAN

CITY           SKY/WX    TMP DP  RH WIND       PRES   REMARKS
MANISTIQUE     CLOUDY    53  46  78 W9G18     29.52S
6HR MIN TEMP:  51; 6HR MAX TEMP:  53;

ESCANABA       CLOUDY    52  47  83 W13       29.55S
6HR MIN TEMP:  52; 6HR MAX TEMP:  53; 6HR PCP: TRACE;

MENOMINEE      CLOUDY    53  44  71 W9        29.61S
6HR MIN TEMP:  52; 6HR MAX TEMP:  54; 6HR PCP: TRACE;

SAWYER-GWINN   CLOUDY    48  46  93 W13       29.51R
$$
MIZ001>003-009>011-084-271300-
WESTERN UPPER MICHIGAN

CITY           SKY/WX    TMP DP  RH WIND       PRES   REMARKS
IRON MOUNTAIN  CLOUDY    50  45  83 W10       29.56S
6HR MIN TEMP:  50; 6HR MAX TEMP:  52; 6HR PCP: TRACE;

HOUGHTON       RAIN      50  46  86 NW18G31   29.48S FOG
6HR MIN TEMP:  50; 6HR MAX TEMP:  52; 6HR PCP:  0.27;

COPPER HARBOR    N/A     52  51  97 N21G31    29.44R
6HR MIN TEMP:  51; 6HR MAX TEMP:  54; 6HR PCP:  0.25;

IRONWOOD       LGT RAIN  48  46  93 W14       29.61R
6HR MIN TEMP:  48; 6HR MAX TEMP:  49; 6HR PCP:  0.36;

$$

ABBREVIATIONS USED IN REMARKS
   TC - TEMPERATURE IN CELSIUS
  WCI - WIND CHILL INDEX
   HX - HEAT INDEX
  VSB - VISIBILITY





USA.gov is the U.S. government's official web portal to all federal, state and local government web resources and services.